Weather History for West Memphis, AR

Change the Weather History Date:

Wednesday, September 4, 2013

  Actual Average Record
Temperature  
Mean Temperature 74 °F -  
Max Temperature 88 °F 86 °F 98 °F (1990)
Min Temperature 62 °F 67 °F 50 °F (1974)
Cooling Degree Days 9    
Growing Degree Days 24 (Base 50)    
Moisture  
Dew Point 64 °F    
Average Humidity 71    
Maximum Humidity 96    
Minimum Humidity 44    
Precipitation  
Precipitation 0.00 in - - ()
Sea Level Pressure  
Sea Level Pressure 30.08 in    
Wind  
Wind Speed 2 mph (NE)    
Max Wind Speed 10 mph    
Max Gust Speed 16 mph    
Visibility 7 miles    
Events      
Averages and records for this station are not official NWS values.
T = Trace of Precipitation, MM = Missing Value Source: NWS Daily Summary

Daily Weather History Graph

Daily Weather History Graph

Search for Another Location

Airport:

Trip Planner

Search our weather history database for the weather conditions in past years. The results will help you decide how hot, cold, wet, or windy it might be!

Date:

Astronomy

Sep. 04, 2013 Rise Set
Actual Time 6:35 AM CDT 7:23 PM CDT
Civil Twilight 6:10 AM CDT 7:48 PM CDT
Nautical Twilight 5:39 AM CDT 8:19 PM CDT
Astronomical Twilight 5:08 AM CDT 8:50 PM CDT
Moon 5:48 AM CDT (9/4) 6:44 PM CDT (9/4)
Length of Visible Light 13h 38m
Length of Day
12h 47m
Waning Crescent, 1% of the Moon is Illuminated
Sep 4
Waning Crescent
Sep 5
New
Sep 12
First Quarter
Sep 19
Full
Sep 26
Last Quarter

Hourly Weather History & Observations

Time (CDT) Temp. Heat Index Dew Point Humidity Pressure Visibility Wind Dir Wind Speed Gust Speed Precip Events Conditions
12:53 AM 64.9 °F - 61.0 °F 87% 30.01 in 10.0 mi Calm Calm - N/A   Clear
1:53 AM 66.0 °F - 62.1 °F 87% 30.01 in 10.0 mi Calm Calm - N/A   Clear
2:53 AM 64.0 °F - 62.1 °F 93% 30.01 in 10.0 mi Calm Calm - N/A   Clear
3:53 AM 63.0 °F - 61.0 °F 93% 30.01 in 10.0 mi Calm Calm - N/A   Clear
4:53 AM 63.0 °F - 61.0 °F 93% 30.02 in 10.0 mi Calm Calm - N/A   Clear
5:53 AM 62.1 °F - 61.0 °F 96% 30.04 in 10.0 mi NNW 3.5 mph - N/A   Clear
6:53 AM 62.1 °F - 61.0 °F 96% 30.07 in 10.0 mi Calm Calm - N/A   Clear
7:53 AM 68.0 °F - 64.0 °F 87% 30.09 in 10.0 mi Calm Calm - N/A   Clear
8:15 AM 71.6 °F - 64.4 °F 78% 30.09 in 3.0 mi Calm Calm - N/A   Haze
8:25 AM 71.6 °F - 64.4 °F 78% 30.10 in 1.0 mi NE 4.6 mph - N/A   Haze
8:29 AM 71.6 °F - 64.4 °F 78% 30.10 in 0.5 mi NE 3.5 mph - N/A   Haze
8:36 AM 73.4 °F - 66.2 °F 78% 30.10 in 1.0 mi NE 3.5 mph - N/A   Haze
8:40 AM 73.4 °F - 66.2 °F 78% 30.10 in 3.0 mi ENE 4.6 mph - N/A   Haze
8:44 AM 73.4 °F - 64.4 °F 73% 30.10 in 1.8 mi NE 4.6 mph - N/A   Haze
8:53 AM 73.9 °F - 66.0 °F 76% 30.09 in 1.2 mi ENE 3.5 mph - N/A   Haze
8:58 AM 73.4 °F - 66.2 °F 78% 30.11 in 3.0 mi ENE 3.5 mph - N/A   Haze
9:12 AM 75.2 °F - 66.2 °F 73% 30.11 in 1.8 mi Calm Calm - N/A   Haze
9:19 AM 75.2 °F - 66.2 °F 73% 30.11 in 3.0 mi Calm Calm - N/A   Haze
9:28 AM 77.0 °F - 66.2 °F 69% 30.12 in 5.0 mi Calm Calm - N/A   Haze
9:53 AM 80.1 °F 82.1 °F 66.0 °F 62% 30.11 in 8.0 mi NE 4.6 mph - N/A   Partly Cloudy
10:53 AM 82.9 °F 84.0 °F 63.0 °F 51% 30.12 in 6.0 mi NE 9.2 mph - N/A   Haze
11:53 AM 84.0 °F 84.9 °F 63.0 °F 49% 30.12 in 10.0 mi NE 10.4 mph 16.1 mph N/A   Scattered Clouds
12:09 PM 84.2 °F 85.0 °F 62.6 °F 48% 30.12 in 4.0 mi NE 6.9 mph - N/A   Haze
12:53 PM 84.9 °F 85.9 °F 63.0 °F 48% 30.10 in 10.0 mi NE 5.8 mph - N/A   Partly Cloudy
1:53 PM 86.0 °F 86.8 °F 63.0 °F 46% 30.09 in 10.0 mi NE 8.1 mph - N/A   Clear
2:53 PM 86.0 °F 86.3 °F 62.1 °F 44% 30.07 in 10.0 mi NE 8.1 mph - N/A   Partly Cloudy
3:53 PM 86.0 °F 86.8 °F 63.0 °F 46% 30.05 in 9.0 mi North 4.6 mph - N/A   Clear
4:53 PM 86.0 °F 86.8 °F 63.0 °F 46% 30.05 in 10.0 mi NNE 8.1 mph - N/A   Clear
5:53 PM 84.0 °F 84.9 °F 63.0 °F 49% 30.04 in 10.0 mi NNE 8.1 mph - N/A   Clear
6:53 PM 81.0 °F 82.5 °F 64.0 °F 56% 30.05 in 10.0 mi NNE 6.9 mph - N/A   Clear
7:53 PM 75.0 °F - 64.0 °F 69% 30.06 in 10.0 mi North 3.5 mph - N/A   Clear
8:53 PM 73.0 °F - 64.0 °F 73% 30.09 in 10.0 mi Calm Calm - N/A   Clear
9:53 PM 72.0 °F - 64.9 °F 78% 30.10 in 10.0 mi Calm Calm - N/A   Clear
10:53 PM 71.1 °F - 64.9 °F 81% 30.10 in 10.0 mi Calm Calm - N/A   Clear
11:53 PM 69.1 °F - 64.0 °F 84% 30.10 in 10.0 mi ENE 3.5 mph - N/A   Clear